TimeEDT,TemperatureF,Dew PointF,Humidity,Sea Level PressureIn,VisibilityMPH,Wind Direction,Wind SpeedMPH,Gust SpeedMPH,PrecipitationIn,Events,Conditions,WindDirDegrees,DateUTC
12:26 AM,60.8,55.4,82,29.78,10.0,NNE,6.9,-,0.02,,Overcast,20,2012-03-25 04:26:00
12:52 AM,60.1,55.9,86,29.77,10.0,NNE,8.1,-,0.02,Rain,Light Rain,20,2012-03-25 04:52:00
1:52 AM,57.9,55.0,90,29.75,10.0,North,4.6,-,N/A,,Partly Cloudy,360,2012-03-25 05:52:00
2:52 AM,55.9,52.0,87,29.73,10.0,North,4.6,-,0.00,,Partly Cloudy,350,2012-03-25 06:52:00
3:30 AM,57.2,53.6,88,29.74,10.0,WNW,5.8,-,N/A,,Mostly Cloudy,290,2012-03-25 07:30:00
3:52 AM,57.9,54.0,87,29.71,10.0,NNW,5.8,-,N/A,,Overcast,330,2012-03-25 07:52:00
4:52 AM,55.9,50.0,80,29.70,10.0,NNW,10.4,18.4,N/A,,Overcast,340,2012-03-25 08:52:00
5:28 AM,55.4,48.2,77,29.72,10.0,North,8.1,-,N/A,,Overcast,350,2012-03-25 09:28:00
5:52 AM,54.0,48.9,83,29.72,10.0,North,5.8,-,N/A,,Mostly Cloudy,350,2012-03-25 09:52:00
6:52 AM,53.1,48.9,86,29.73,10.0,NNW,5.8,-,N/A,,Partly Cloudy,330,2012-03-25 10:52:00
7:52 AM,53.1,48.9,86,29.75,10.0,NW,6.9,-,N/A,,Mostly Cloudy,310,2012-03-25 11:52:00
8:52 AM,55.0,50.0,83,29.76,10.0,North,6.9,-,N/A,,Mostly Cloudy,350,2012-03-25 12:52:00
9:06 AM,55.4,48.2,77,29.77,10.0,NNW,8.1,-,N/A,Thunderstorm,Thunderstorm,340,2012-03-25 13:06:00
9:52 AM,57.0,48.0,72,29.77,10.0,NW,10.4,-,N/A,,Mostly Cloudy,310,2012-03-25 13:52:00
10:52 AM,63.0,50.0,63,29.77,10.0,Variable,6.9,-,N/A,,Mostly Cloudy,0,2012-03-25 14:52:00
11:52 AM,63.0,48.9,60,29.78,10.0,North,15.0,-,N/A,,Mostly Cloudy,350,2012-03-25 15:52:00
12:52 PM,63.0,51.1,65,29.79,10.0,North,13.8,-,N/A,,Mostly Cloudy,350,2012-03-25 16:52:00
1:52 PM,64.0,51.1,63,29.78,10.0,North,10.4,-,N/A,,Mostly Cloudy,360,2012-03-25 17:52:00
2:52 PM,62.1,48.9,62,29.77,10.0,NNW,9.2,-,N/A,,Mostly Cloudy,330,2012-03-25 18:52:00
3:52 PM,64.9,50.0,58,29.77,10.0,NNW,10.4,-,N/A,,Mostly Cloudy,330,2012-03-25 19:52:00
4:52 PM,64.9,50.0,58,29.78,10.0,North,15.0,18.4,N/A,,Scattered Clouds,360,2012-03-25 20:52:00
5:52 PM,64.9,50.0,58,29.79,10.0,North,9.2,-,N/A,,Mostly Cloudy,350,2012-03-25 21:52:00
6:52 PM,62.1,50.0,65,29.80,10.0,NW,6.9,-,N/A,,Overcast,320,2012-03-25 22:52:00
7:52 PM,60.1,51.1,72,29.81,10.0,NNW,5.8,-,N/A,,Mostly Cloudy,330,2012-03-25 23:52:00
8:52 PM,59.0,52.0,78,29.83,10.0,NW,5.8,-,0.00,Rain,Light Rain,310,2012-03-26 00:52:00
9:52 PM,57.9,53.1,84,29.83,10.0,Calm,Calm,-,0.00,,Overcast,0,2012-03-26 01:52:00
10:52 PM,57.9,53.1,84,29.83,10.0,Calm,Calm,-,N/A,,Overcast,0,2012-03-26 02:52:00
11:52 PM,57.9,53.1,84,29.84,10.0,NNW,3.5,-,N/A,,Overcast,330,2012-03-26 03:52:00